Location: Harwich
(41.7160°N, 69.9939°W)
Time: 08:15:06
(UTC+01:00)

X-37B - Pass Details

Date: 06 December 2022
Orbit: 277 x 277 km, 45.0° (Epoch: 01 November)

Event Time Altitude Azimuth Distance (km) Brightness Sun altitude
Rises 22:57:11 0° 199° (SSW) 1,900 4.7 -8.8°
Reaches altitude 10° 23:00:38 10° 146° (SE) 1,095 2.7 -9.4°
Maximum altitude 23:00:47 10° 142° (SE) 1,093 2.7 -9.5°
Drops below altitude 10° 23:00:56 10° 139° (SE) 1,095 2.7 -9.5°
Enters shadow 23:01:59 - 116° (ESE) 1,211 2.7 -9.7°
